QPF
0.02 0.02 0.02 0.02 0.02 0.02 0.02 0.02 0.03 0.03 0.04 0.03 0.02 0.02 0.04 0.04 0.03 0.03 0.02 0.02 0.02 0.02 0.03 0.03 0.03 0.05 0.04 0.03 0.03 0.03 0.03 0.03 0.02 0.01 0.01 0.02 0.04 0.07 0.07 0.07 0.08 0.08 0.05
0.03 0.03 0.02 0.02 0.02 0.02 0.02 0.03 0.03 0.03 0.03 0.04 0.04 0.04 0.05 0.04 0.04 0.04 0.05 0.04 0.03 0.03 0.03 0.04 0.04 0.06 0.07 0.04 0.03 0.03 0.03 0.03 0.02 0.01 0.01 0.02 0.04 0.05 0.06 0.06 0.07 0.09 0.08
0.04 0.04 0.03 0.02 0.02 0.02 0.02 0.03 0.02 0.02 0.02 0.03 0.04 0.05 0.05 0.05 0.06 0.06 0.06 0.05 0.04 0.03 0.04 0.05 0.04 0.04 0.05 0.05 0.05 0.03 0.03 0.03 0.03 0.02 0.02 0.02 0.03 0.03 0.05 0.05 0.05 0.06 0.06
0.02 0.02 0.02 0.02 0.01 0.01 0.01 0.02 0.03 0.03 0.03 0.03 0.04 0.05 0.05 0.05 0.05 0.05 0.06 0.05 0.04 0.03 0.04 0.05 0.04 0.04 0.04 0.03 0.03 0.03 0.02 0.03 0.04 0.04 0.04 0.03 0.02 0.02 0.03 0.04 0.05 0.06 0.05
0.01 0.01 0.01 0.01 0.01 0.01 0.01 0.01 0.02 0.03 0.04 0.05 0.06 0.06 0.06 0.05 0.05 0.05 0.05 0.04 0.03 0.02 0.03 0.05 0.05 0.05 0.04 0.03 0.01 0.01 0.02 0.02 0.04 0.05 0.04 0.02 0.01 0.02 0.01 0.01 0.02 0.04 0.04
0.00 0.00 0.01 0.01 0.01 0.01 0.01 0.02 0.02 0.03 0.03 0.04 0.06 0.06 0.05 0.05 0.06 0.06 0.03 0.02 0.02 0.02 0.02 0.03 0.05 0.04 0.03 0.02 0.01 0.01 0.01 0.02 0.03 0.03 0.02 0.02 0.01 0.01 0.02 0.02 0.01 0.02 0.03
0.00 0.00 0.01 0.02 0.02 0.02 0.02 0.02 0.02 0.02 0.02 0.02 0.03 0.03 0.03 0.03 0.05 0.05 0.03 0.02 0.02 0.02 0.01 0.02 0.03 0.02 0.03 0.02 0.01 0.02 0.02 0.02 0.02 0.02 0.01 0.01 0.02 0.02 0.03 0.03 0.03 0.02 0.02
0.00 0.01 0.01 0.02 0.02 0.02 0.02 0.03 0.03 0.02 0.02 0.02 0.02 0.02 0.03 0.04 0.05 0.04 0.04 0.03 0.02 0.02 0.02 0.02 0.02 0.02 0.02 0.03 0.04 0.04 0.03 0.02 0.03 0.03 0.01 0.01 0.01 0.02 0.04 0.05 0.06 0.06 0.04
0.01 0.01 0.01 0.02 0.02 0.02 0.02 0.03 0.03 0.02 0.01 0.01 0.01 0.02 0.03 0.04 0.06 0.06 0.05 0.04 0.03 0.03 0.03 0.03 0.03 0.02 0.03 0.06 0.06 0.05 0.04 0.04 0.04 0.04 0.03 0.02 0.02 0.03 0.05 0.06 0.06 0.06 0.06
0.01 0.01 0.01 0.01 0.02 0.01 0.01 0.01 0.01 0.01 0.01 0.01 0.01 0.02 0.02 0.02 0.04 0.05 0.06 0.05 0.04 0.03 0.04 0.04 0.04 0.03 0.04 0.04 0.02 0.02 0.02 0.02 0.03 0.05 0.04 0.03 0.02 0.02 0.04 0.04 0.04 0.05 0.05
0.00 0.01 0.01 0.02 0.02 0.02 0.02 0.01 0.01 0.00 0.00 0.01 0.01 0.01 0.01 0.01 0.02 0.02 0.03 0.04 0.05 0.05 0.04 0.03 0.03 0.03 0.03 0.02 0.02 0.02 0.02 0.03 0.03 0.04 0.03 0.02 0.02 0.02 0.02 0.02 0.04 0.04 0.04
0.01 0.01 0.02 0.02 0.02 0.02 0.03 0.02 0.01 0.01 0.01 0.01 0.01 0.01 0.01 0.01 0.01 0.02 0.03 0.04 0.04 0.04 0.04 0.03 0.03 0.03 0.03 0.02 0.02 0.01 0.01 0.02 0.01 0.01 0.02 0.02 0.01 0.02 0.02 0.03 0.03 0.04 0.04
0.01 0.01 0.02 0.02 0.01 0.02 0.02 0.02 0.02 0.01 0.01 0.01 0.01 0.01 0.01 0.02 0.03 0.03 0.03 0.03 0.02 0.02 0.03 0.04 0.04 0.03 0.02 0.02 0.03 0.02 0.01 0.01 0.00 0.00 0.00 0.01 0.02 0.03 0.03 0.04 0.05 0.06 0.06
0.01 0.01 0.01 0.02 0.01 0.02 0.02 0.01 0.01 0.01 0.01 0.01 0.01 0.01 0.02 0.02 0.02 0.03 0.04 0.02 0.01 0.01 0.02 0.02 0.02 0.02 0.02 0.02 0.02 0.02 0.02 0.01 0.01 0.01 0.00 0.00 0.01 0.02 0.04 0.04 0.04 0.05 0.07
0.01 0.01 0.01 0.01 0.01 0.01 0.01 0.01 0.01 0.01 0.01 0.01 0.02 0.02 0.02 0.02 0.03 0.04 0.03 0.02 0.02 0.02 0.02 0.02 0.02 0.01 0.01 0.03 0.04 0.03 0.03 0.02 0.01 0.01 0.01 0.01 0.02 0.02 0.02 0.03 0.03 0.03 0.04
0.01 0.01 0.01 0.01 0.01 0.01 0.01 0.01 0.01 0.00 0.01 0.01 0.01 0.02 0.02 0.03 0.03 0.03 0.03 0.01 0.01 0.02 0.02 0.02 0.02 0.01 0.02 0.03 0.04 0.05 0.04 0.04 0.03 0.03 0.02 0.03 0.02 0.02 0.02 0.02 0.01 0.02 0.02
0.02 0.01 0.02 0.02 0.02 0.02 0.02 0.01 0.01 0.01 0.01 0.01 0.02 0.03 0.03 0.03 0.03 0.02 0.02 0.01 0.02 0.02 0.02 0.01 0.01 0.01 0.02 0.03 0.04 0.04 0.04 0.04 0.04 0.04 0.04 0.03 0.03 0.02 0.02 0.02 0.01 0.01 0.01
0.01 0.01 0.02 0.02 0.03 0.04 0.04 0.03 0.03 0.03 0.02 0.02 0.02 0.03 0.02 0.03 0.02 0.02 0.02 0.02 0.02 0.02 0.02 0.02 0.02 0.02 0.02 0.02 0.03 0.04 0.04 0.04 0.03 0.02 0.03 0.03 0.02 0.01 0.01 0.01 0.01 0.01 0.01
0.02 0.01 0.02 0.02 0.02 0.04 0.04 0.04 0.05 0.04 0.03 0.03 0.02 0.03 0.04 0.04 0.05 0.05 0.05 0.04 0.04 0.03 0.03 0.02 0.02 0.02 0.02 0.02 0.02 0.02 0.02 0.05 0.05 0.04 0.02 0.02 0.02 0.01 0.01 0.01 0.01 0.02 0.02
0.01 0.01 0.02 0.02 0.03 0.04 0.04 0.05 0.06 0.06 0.05 0.04 0.04 0.03 0.04 0.05 0.05 0.05 0.05 0.07 0.08 0.07 0.06 0.05 0.03 0.02 0.02 0.01 0.01 0.01 0.01 0.02 0.04 0.04 0.03 0.02 0.01 0.01 0.01 0.01 0.02 0.02 0.02
0.01 0.01 0.02 0.02 0.03 0.03 0.04 0.04 0.05 0.06 0.06 0.05 0.04 0.04 0.06 0.07 0.07 0.08 0.07 0.07 0.08 0.09 0.09 0.08 0.07 0.05 0.03 0.02 0.02 0.01 0.01 0.01 0.01 0.02 0.03 0.02 0.01 0.01 0.01 0.01 0.02 0.02 0.02
0.02 0.02 0.02 0.02 0.03 0.03 0.03 0.04 0.04 0.05 0.05 0.04 0.04 0.05 0.06 0.07 0.08 0.08 0.08 0.08 0.09 0.08 0.08 0.07 0.06 0.06 0.05 0.04 0.02 0.02 0.02 0.01 0.01 0.01 0.01 0.02 0.02 0.02 0.02 0.01 0.01 0.01 0.01
0.02 0.02 0.02 0.03 0.04 0.05 0.04 0.04 0.03 0.04 0.04 0.04 0.04 0.05 0.05 0.06 0.07 0.08 0.08 0.07 0.06 0.07 0.07 0.07 0.07 0.07 0.06 0.06 0.05 0.03 0.02 0.02 0.01 0.02 0.02 0.02 0.02 0.02 0.02 0.02 0.02 0.02 0.02
0.02 0.02 0.03 0.03 0.04 0.04 0.04 0.05 0.04 0.03 0.03 0.03 0.04 0.05 0.07 0.07 0.07 0.07 0.08 0.07 0.05 0.05 0.05 0.05 0.04 0.04 0.04 0.04 0.04 0.03 0.02 0.01 0.01 0.01 0.01 0.01 0.01 0.01 0.02 0.02 0.01 0.01 0.02
0.02 0.02 0.02 0.03 0.04 0.04 0.04 0.04 0.03 0.03 0.04 0.05 0.05 0.06 0.07 0.07 0.07 0.07 0.07 0.07 0.07 0.06 0.05 0.04 0.03 0.03 0.03 0.03 0.03 0.03 0.03 0.03 0.03 0.03 0.02 0.02 0.02 0.02 0.02 0.03 0.03 0.01 0.01
0.02 0.03 0.03 0.04 0.04 0.03 0.04 0.03 0.03 0.03 0.03 0.04 0.06 0.07 0.07 0.07 0.07 0.07 0.08 0.09 0.09 0.08 0.08 0.09 0.08 0.08 0.07 0.06 0.05 0.05 0.04 0.04 0.04 0.03 0.03 0.03 0.02 0.02 0.02 0.02 0.03 0.03 0.02
MSLP
1013.06 1013.45 1013.85 1014.20 1014.48 1014.68 1014.79 1014.86 1014.92 1014.99 1015.11 1015.28 1015.49 1015.72 1015.94 1016.12 1016.25 1016.33 1016.37 1016.38 1016.38 1016.40 1016.44 1016.50 1016.58 1016.67 1016.75 1016.80 1016.83 1016.83 1016.80 1016.75 1016.68 1016.59 1016.48 1016.35 1016.19 1016.00 1015.80 1015.60 1015.42 1015.28 1015.20
1012.76 1013.17 1013.58 1013.95 1014.25 1014.48 1014.63 1014.72 1014.80 1014.89 1015.01 1015.17 1015.37 1015.58 1015.78 1015.97 1016.11 1016.21 1016.27 1016.30 1016.33 1016.35 1016.39 1016.44 1016.50 1016.57 1016.63 1016.69 1016.73 1016.76 1016.77 1016.77 1016.75 1016.71 1016.63 1016.51 1016.34 1016.13 1015.89 1015.63 1015.39 1015.18 1015.05
1012.44 1012.87 1013.29 1013.68 1014.01 1014.26 1014.44 1014.58 1014.69 1014.79 1014.92 1015.08 1015.26 1015.45 1015.64 1015.82 1015.96 1016.07 1016.16 1016.21 1016.25 1016.29 1016.33 1016.37 1016.42 1016.46 1016.51 1016.55 1016.60 1016.64 1016.69 1016.73 1016.76 1016.76 1016.72 1016.62 1016.46 1016.24 1015.98 1015.69 1015.40 1015.15 1014.96
1012.06 1012.51 1012.95 1013.36 1013.70 1013.99 1014.20 1014.38 1014.52 1014.66 1014.80 1014.96 1015.14 1015.32 1015.50 1015.66 1015.81 1015.92 1016.02 1016.09 1016.14 1016.19 1016.23 1016.26 1016.29 1016.31 1016.34 1016.36 1016.40 1016.44 1016.50 1016.57 1016.62 1016.66 1016.66 1016.60 1016.47 1016.27 1016.02 1015.73 1015.43 1015.16 1014.94
1011.60 1012.07 1012.52 1012.94 1013.31 1013.62 1013.87 1014.08 1014.27 1014.44 1014.61 1014.79 1014.97 1015.14 1015.31 1015.46 1015.60 1015.72 1015.81 1015.89 1015.96 1016.01 1016.05 1016.07 1016.08 1016.08 1016.08 1016.07 1016.08 1016.11 1016.16 1016.23 1016.30 1016.37 1016.40 1016.38 1016.30 1016.16 1015.95 1015.71 1015.44 1015.18 1014.95
1011.06 1011.55 1012.01 1012.44 1012.82 1013.15 1013.43 1013.68 1013.90 1014.12 1014.32 1014.51 1014.70 1014.88 1015.04 1015.18 1015.31 1015.42 1015.51 1015.59 1015.66 1015.72 1015.75 1015.77 1015.76 1015.74 1015.70 1015.66 1015.64 1015.63 1015.66 1015.71 1015.79 1015.86 1015.93 1015.96 1015.94 1015.86 1015.73 1015.56 1015.36 1015.15 1014.95
1010.48 1010.97 1011.43 1011.86 1012.24 1012.57 1012.88 1013.16 1013.42 1013.67 1013.90 1014.12 1014.32 1014.49 1014.65 1014.78 1014.89 1014.99 1015.08 1015.16 1015.23 1015.29 1015.32 1015.34 1015.32 1015.27 1015.21 1015.14 1015.07 1015.03 1015.02 1015.04 1015.10 1015.18 1015.26 1015.33 1015.38 1015.38 1015.33 1015.25 1015.14 1015.01 1014.88
1009.88 1010.37 1010.82 1011.23 1011.60 1011.93 1012.25 1012.54 1012.83 1013.10 1013.36 1013.60 1013.81 1013.98 1014.13 1014.24 1014.34 1014.43 1014.51 1014.59 1014.66 1014.72 1014.77 1014.78 1014.76 1014.71 1014.63 1014.53 1014.44 1014.35 1014.31 1014.30 1014.33 1014.39 1014.48 1014.58 1014.67 1014.73 1014.77 1014.78 1014.76 1014.72 1014.66
1009.31 1009.79 1010.22 1010.60 1010.94 1011.26 1011.57 1011.87 1012.17 1012.46 1012.73 1012.97 1013.18 1013.35 1013.49 1013.59 1013.67 1013.75 1013.82 1013.90 1013.98 1014.06 1014.12 1014.15 1014.14 1014.10 1014.02 1013.92 1013.80 1013.70 1013.62 1013.58 1013.58 1013.62 1013.69 1013.80 1013.91 1014.01 1014.11 1014.19 1014.24 1014.28 1014.29
1008.78 1009.24 1009.64 1009.99 1010.30 1010.59 1010.88 1011.17 1011.47 1011.76 1012.03 1012.28 1012.48 1012.65 1012.77 1012.86 1012.93 1013.00 1013.07 1013.15 1013.24 1013.34 1013.42 1013.49 1013.51 1013.50 1013.45 1013.36 1013.25 1013.14 1013.04 1012.98 1012.95 1012.96 1013.01 1013.10 1013.20 1013.32 1013.43 1013.55 1013.64 1013.73 1013.78
1008.29 1008.73 1009.09 1009.40 1009.68 1009.94 1010.21 1010.49 1010.77 1011.05 1011.32 1011.56 1011.76 1011.91 1012.02 1012.11 1012.17 1012.23 1012.31 1012.40 1012.51 1012.63 1012.75 1012.85 1012.93 1012.96 1012.95 1012.90 1012.82 1012.72 1012.63 1012.56 1012.52 1012.51 1012.53 1012.58 1012.66 1012.75 1012.85 1012.95 1013.05 1013.14 1013.22
1007.85 1008.24 1008.56 1008.84 1009.08 1009.32 1009.57 1009.83 1010.10 1010.37 1010.63 1010.87 1011.06 1011.20 1011.31 1011.39 1011.45 1011.52 1011.60 1011.71 1011.84 1011.99 1012.14 1012.29 1012.41 1012.50 1012.54 1012.55 1012.52 1012.47 1012.41 1012.35 1012.31 1012.29 1012.29 1012.30 1012.34 1012.38 1012.44 1012.50 1012.56 1012.63 1012.70
1007.41 1007.76 1008.04 1008.28 1008.51 1008.73 1008.96 1009.22 1009.49 1009.76 1010.01 1010.24 1010.43 1010.58 1010.68 1010.77 1010.84 1010.91 1011.00 1011.13 1011.28 1011.45 1011.64 1011.82 1011.99 1012.13 1012.23 1012.30 1012.33 1012.34 1012.33 1012.31 1012.30 1012.28 1012.27 1012.27 1012.26 1012.26 1012.26 1012.26 1012.26 1012.28 1012.31
1006.99 1007.28 1007.53 1007.75 1007.96 1008.18 1008.42 1008.68 1008.95 1009.23 1009.49 1009.72 1009.91 1010.07 1010.19 1010.28 1010.36 1010.45 1010.55 1010.69 1010.85 1011.04 1011.25 1011.46 1011.65 1011.83 1011.99 1012.11 1012.20 1012.28 1012.33 1012.38 1012.41 1012.43 1012.44 1012.43 1012.41 1012.37 1012.32 1012.26 1012.20 1012.15 1012.12
1006.58 1006.83 1007.05 1007.26 1007.48 1007.71 1007.97 1008.25 1008.54 1008.82 1009.10 1009.34 1009.54 1009.71 1009.84 1009.94 1010.04 1010.14 1010.26 1010.40 1010.57 1010.76 1010.96 1011.17 1011.38 1011.57 1011.75 1011.92 1012.07 1012.21 1012.33 1012.45 1012.55 1012.63 1012.69 1012.71 1012.70 1012.65 1012.58 1012.48 1012.37 1012.27 1012.17
1006.24 1006.45 1006.65 1006.87 1007.10 1007.36 1007.65 1007.96 1008.27 1008.57 1008.86 1009.11 1009.33 1009.50 1009.65 1009.77 1009.88 1009.99 1010.11 1010.25 1010.41 1010.58 1010.77 1010.95 1011.14 1011.32 1011.50 1011.68 1011.87 1012.05 1012.24 1012.43 1012.61 1012.77 1012.90 1012.99 1013.03 1013.01 1012.95 1012.84 1012.71 1012.57 1012.43
1006.01 1006.19 1006.38 1006.61 1006.88 1007.18 1007.50 1007.84 1008.17 1008.49 1008.79 1009.04 1009.26 1009.44 1009.59 1009.72 1009.84 1009.96 1010.08 1010.21 1010.35 1010.49 1010.63 1010.77 1010.91 1011.06 1011.21 1011.38 1011.57 1011.78 1012.01 1012.27 1012.52 1012.77 1012.99 1013.16 1013.28 1013.33 1013.31 1013.23 1013.11 1012.95 1012.79
1005.94 1006.09 1006.30 1006.55 1006.85 1007.19 1007.54 1007.91 1008.25 1008.58 1008.87 1009.12 1009.33 1009.50 1009.65 1009.78 1009.90 1010.01 1010.13 1010.24 1010.34 1010.45 1010.54 1010.62 1010.70 1010.78 1010.88 1011.01 1011.17 1011.38 1011.64 1011.94 1012.26 1012.58 1012.89 1013.16 1013.36 1013.50 1013.55 1013.53 1013.44 1013.31 1013.14
1006.03 1006.19 1006.41 1006.70 1007.03 1007.40 1007.78 1008.15 1008.50 1008.82 1009.09 1009.31 1009.50 1009.65 1009.78 1009.89 1010.00 1010.11 1010.21 1010.30 1010.38 1010.44 1010.47 1010.49 1010.50 1010.51 1010.53 1010.60 1010.72 1010.90 1011.15 1011.46 1011.81 1012.20 1012.58 1012.93 1013.23 1013.45 1013.59 1013.64 1013.62 1013.52 1013.38
1006.28 1006.46 1006.71 1007.03 1007.39 1007.78 1008.18 1008.55 1008.88 1009.16 1009.40 1009.58 1009.73 1009.84 1009.95 1010.04 1010.14 1010.23 1010.32 1010.39 1010.44 1010.46 1010.45 1010.40 1010.33 1010.26 1010.21 1010.20 1010.25 1010.38 1010.59 1010.89 1011.25 1011.66 1012.09 1012.50 1012.87 1013.17 1013.39 1013.52 1013.56 1013.52 1013.41
1006.65 1006.86 1007.14 1007.49 1007.88 1008.28 1008.67 1009.03 1009.33 1009.57 1009.76 1009.89 1009.99 1010.06 1010.13 1010.20 1010.28 1010.36 1010.44 1010.50 1010.53 1010.52 1010.47 1010.37 1010.24 1010.09 1009.96 1009.87 1009.84 1009.90 1010.05 1010.30 1010.64 1011.05 1011.49 1011.93 1012.35 1012.71 1012.99 1013.18 1013.28 1013.30 1013.23
1007.07 1007.31 1007.63 1008.01 1008.42 1008.83 1009.21 1009.54 1009.80 1010.00 1010.13 1010.21 1010.26 1010.29 1010.33 1010.38 1010.44 1010.51 1010.59 1010.64 1010.66 1010.63 1010.55 1010.41 1010.23 1010.02 1009.82 1009.65 1009.54 1009.52 1009.60 1009.79 1010.08 1010.45 1010.87 1011.32 1011.75 1012.13 1012.46 1012.69 1012.84 1012.90 1012.87
1007.49 1007.77 1008.12 1008.52 1008.94 1009.35 1009.72 1010.03 1010.25 1010.41 1010.50 1010.53 1010.54 1010.55 1010.56 1010.59 1010.65 1010.72 1010.80 1010.85 1010.87 1010.83 1010.73 1010.56 1010.34 1010.08 1009.81 1009.58 1009.40 1009.31 1009.31 1009.43 1009.66 1009.98 1010.36 1010.77 1011.19 1011.57 1011.90 1012.15 1012.33 1012.42 1012.42
1007.85 1008.17 1008.56 1008.98 1009.42 1009.83 1010.18 1010.47 1010.68 1010.80 1010.86 1010.87 1010.86 1010.85 1010.85 1010.88 1010.94 1011.02 1011.09 1011.15 1011.16 1011.12 1011.00 1010.81 1010.56 1010.26 1009.96 1009.67 1009.43 1009.28 1009.22 1009.27 1009.43 1009.69 1010.02 1010.38 1010.76 1011.12 1011.43 1011.68 1011.86 1011.95 1011.97
1008.16 1008.52 1008.94 1009.39 1009.84 1010.25 1010.61 1010.88 1011.08 1011.19 1011.25 1011.25 1011.24 1011.23 1011.24 1011.27 1011.34 1011.42 1011.50 1011.55 1011.56 1011.50 1011.37 1011.16 1010.89 1010.57 1010.23 1009.90 1009.62 1009.42 1009.32 1009.32 1009.42 1009.62 1009.89 1010.21 1010.53 1010.85 1011.12 1011.34 1011.49 1011.58 1011.59
1008.44 1008.84 1009.29 1009.76 1010.22 1010.64 1011.00 1011.29 1011.48 1011.61 1011.67 1011.69 1011.70 1011.70 1011.73 1011.78 1011.85 1011.93 1012.00 1012.05 1012.04 1011.96 1011.81 1011.58 1011.28 1010.94 1010.58 1010.24 1009.94 1009.71 1009.57 1009.54 1009.60 1009.75 1009.97 1010.23 1010.50 1010.76 1010.98 1011.15 1011.26 1011.30 1011.28
Thickness
5767 5763 5760 5757 5755 5752 5749 5747 5745 5743 5741 5739 5738 5736 5735 5733 5732 5729 5727 5726 5724 5722 5721 5719 5717 5716 5714 5713 5711 5709 5707 5704 5699 5699 5701 5702 5702 5703 5703 5704 5703 5702 5701
5763 5760 5756 5754 5751 5748 5746 5744 5742 5740 5739 5737 5735 5733 5731 5729 5727 5725 5723 5722 5719 5717 5716 5714 5713 5712 5709 5708 5706 5704 5703 5701 5698 5695 5695 5695 5696 5696 5696 5696 5697 5696 5695
5760 5756 5752 5750 5747 5744 5742 5741 5739 5737 5735 5733 5731 5729 5727 5725 5722 5721 5719 5717 5715 5714 5712 5710 5708 5707 5704 5703 5702 5700 5699 5699 5696 5692 5690 5690 5690 5690 5689 5690 5691 5690 5691
5756 5752 5748 5746 5744 5741 5739 5737 5735 5732 5730 5728 5727 5725 5724 5722 5719 5717 5715 5713 5711 5709 5708 5707 5705 5703 5701 5699 5697 5695 5694 5692 5690 5687 5685 5683 5683 5684 5683 5681 5681 5682 5683
5752 5748 5745 5743 5740 5737 5735 5732 5730 5728 5726 5724 5722 5721 5719 5717 5715 5712 5711 5709 5706 5704 5703 5702 5702 5701 5699 5696 5694 5691 5689 5686 5683 5681 5678 5677 5676 5675 5675 5676 5675 5675 5676
5748 5744 5741 5738 5735 5732 5730 5728 5726 5723 5721 5719 5717 5715 5714 5713 5712 5709 5707 5704 5702 5699 5697 5697 5696 5695 5694 5692 5691 5689 5686 5682 5678 5675 5674 5672 5671 5671 5671 5671 5669 5668 5668
5744 5740 5737 5734 5730 5728 5726 5723 5721 5718 5716 5713 5712 5710 5708 5707 5707 5705 5703 5700 5697 5695 5693 5691 5690 5690 5687 5685 5684 5683 5681 5680 5677 5674 5670 5669 5668 5668 5666 5665 5664 5664 5665
5738 5735 5732 5729 5726 5723 5721 5718 5716 5714 5711 5708 5706 5704 5702 5702 5701 5700 5698 5694 5692 5690 5688 5686 5684 5682 5681 5678 5676 5674 5673 5673 5672 5670 5669 5669 5669 5667 5665 5664 5663 5662 5663
5732 5729 5727 5724 5721 5717 5715 5712 5711 5708 5705 5703 5701 5699 5697 5696 5696 5694 5692 5688 5685 5684 5683 5681 5679 5676 5675 5672 5669 5667 5666 5666 5667 5667 5666 5666 5665 5664 5662 5659 5657 5655 5655
5727 5725 5723 5719 5716 5712 5710 5708 5706 5703 5701 5699 5696 5694 5692 5691 5690 5689 5686 5682 5679 5677 5675 5674 5673 5671 5668 5666 5663 5661 5659 5660 5660 5660 5660 5660 5660 5659 5659 5657 5655 5651 5650
5724 5721 5717 5714 5711 5708 5706 5704 5701 5698 5695 5692 5690 5689 5687 5686 5684 5683 5681 5677 5674 5670 5668 5666 5666 5664 5662 5660 5658 5657 5656 5655 5653 5653 5653 5653 5653 5654 5654 5654 5653 5651 5649
5717 5714 5711 5708 5706 5705 5700 5698 5695 5691 5688 5686 5683 5682 5681 5680 5678 5676 5674 5672 5669 5665 5663 5662 5660 5659 5657 5655 5654 5653 5652 5650 5648 5646 5645 5646 5646 5647 5649 5650 5650 5650 5651
5708 5706 5704 5702 5700 5698 5694 5691 5687 5685 5682 5679 5676 5674 5673 5672 5671 5670 5667 5665 5663 5660 5658 5657 5655 5654 5651 5650 5649 5648 5646 5643 5641 5639 5639 5640 5641 5642 5643 5644 5645 5645 5646
5700 5698 5697 5694 5692 5690 5688 5686 5682 5679 5676 5673 5670 5668 5666 5665 5664 5662 5659 5657 5656 5653 5652 5651 5650 5648 5646 5645 5643 5641 5640 5638 5636 5635 5635 5635 5635 5636 5636 5637 5637 5638 5637
5694 5692 5690 5688 5686 5683 5681 5679 5678 5676 5674 5670 5667 5664 5661 5659 5659 5657 5654 5651 5649 5647 5644 5643 5641 5640 5638 5637 5636 5635 5634 5633 5631 5630 5630 5629 5629 5630 5630 5631 5631 5631 5630
5687 5686 5684 5682 5680 5677 5674 5672 5672 5671 5669 5667 5665 5662 5660 5658 5656 5652 5649 5647 5644 5641 5637 5635 5634 5633 5632 5631 5629 5629 5629 5628 5627 5626 5625 5624 5624 5624 5624 5625 5625 5625 5624
5681 5679 5678 5676 5673 5670 5667 5665 5663 5663 5662 5660 5658 5656 5655 5653 5650 5647 5644 5641 5638 5634 5631 5630 5629 5628 5627 5626 5625 5623 5623 5623 5622 5621 5620 5620 5619 5619 5618 5619 5619 5618 5618
5675 5674 5672 5669 5668 5665 5663 5660 5658 5655 5653 5652 5651 5649 5647 5646 5644 5641 5638 5633 5630 5628 5627 5626 5625 5624 5623 5621 5620 5619 5618 5617 5616 5616 5615 5615 5614 5614 5613 5613 5613 5613 5612
5668 5667 5665 5664 5662 5660 5657 5655 5652 5650 5648 5645 5643 5641 5640 5638 5636 5633 5630 5628 5627 5625 5624 5622 5622 5620 5619 5617 5616 5614 5613 5612 5612 5611 5611 5611 5610 5609 5608 5608 5608 5608 5607
5662 5662 5660 5658 5656 5654 5652 5649 5647 5645 5642 5639 5637 5636 5634 5631 5628 5627 5625 5624 5623 5622 5621 5619 5618 5617 5615 5613 5612 5610 5609 5608 5608 5607 5607 5606 5606 5605 5604 5603 5603 5602 5602
5657 5655 5654 5652 5650 5648 5646 5644 5642 5640 5638 5636 5634 5634 5631 5628 5626 5625 5622 5621 5620 5619 5617 5616 5615 5613 5611 5610 5608 5607 5606 5605 5604 5603 5602 5602 5601 5600 5599 5598 5598 5598 5598
5651 5649 5648 5646 5645 5643 5641 5640 5638 5636 5633 5632 5630 5630 5626 5624 5622 5621 5619 5618 5617 5616 5615 5613 5611 5610 5608 5606 5605 5604 5603 5602 5601 5599 5598 5597 5596 5595 5594 5593 5592 5592 5592
5646 5644 5642 5641 5640 5638 5636 5635 5633 5631 5629 5627 5625 5624 5622 5619 5618 5617 5615 5614 5613 5611 5610 5609 5607 5605 5604 5603 5601 5599 5598 5597 5596 5595 5593 5591 5590 5588 5587 5587 5587 5586 5586
5641 5639 5637 5635 5634 5632 5631 5629 5628 5626 5624 5622 5621 5619 5617 5615 5614 5613 5611 5610 5608 5607 5605 5603 5602 5601 5600 5599 5598 5595 5593 5592 5591 5590 5588 5587 5585 5584 5582 5581 5581 5581 5581
5636 5633 5631 5630 5628 5626 5625 5623 5622 5620 5619 5617 5615 5614 5612 5610 5609 5607 5606 5604 5603 5601 5600 5598 5597 5595 5594 5593 5592 5590 5589 5587 5586 5584 5583 5582 5581 5579 5578 5577 5576 5576 5576
5630 5628 5626 5624 5622 5621 5619 5617 5615 5614 5612 5611 5609 5608 5606 5605 5603 5601 5600 5597 5595 5594 5593 5592 5590 5589 5588 5587 5586 5584 5583 5582 5581 5579 5578 5577 5576 5574 5573 5572 5572 5571 5572